TimeEST,TemperatureF,Dew PointF,Humidity,Sea Level PressureIn,VisibilityMPH,Wind Direction,Wind SpeedMPH,Gust SpeedMPH,PrecipitationIn,Events,Conditions,WindDirDegrees,DateUTC
12:55 AM,51.1,50.9,99,30.23,6.0,ESE,5.8,-,0.09,Rain,Light Rain,110,2013-02-11 05:55:00
12:57 AM,51.8,50.0,94,30.23,6.0,ESE,6.9,-,N/A,Rain,Light Rain,110,2013-02-11 05:57:00
1:10 AM,51.8,50.0,94,30.22,4.0,ESE,8.1,-,N/A,Rain,Light Rain,120,2013-02-11 06:10:00
1:55 AM,51.6,51.4,99,30.19,5.0,ESE,8.1,-,0.12,Rain,Light Rain,120,2013-02-11 06:55:00
2:55 AM,52.7,52.7,100,30.16,7.0,ESE,9.2,-,0.09,Rain,Light Rain,120,2013-02-11 07:55:00
3:44 AM,53.6,53.6,100,30.12,10.0,ESE,8.1,-,N/A,,Overcast,120,2013-02-11 08:44:00
3:55 AM,53.8,53.8,100,30.12,10.0,SE,8.1,-,0.01,,Overcast,130,2013-02-11 08:55:00
4:01 AM,53.6,53.6,100,30.11,10.0,SE,8.1,-,N/A,,Overcast,130,2013-02-11 09:01:00
4:23 AM,55.4,55.4,100,30.12,10.0,SSE,6.9,-,N/A,Rain,Light Rain,160,2013-02-11 09:23:00
4:37 AM,55.4,55.4,100,30.12,10.0,South,9.2,-,N/A,Rain,Light Rain,170,2013-02-11 09:37:00
4:55 AM,56.1,56.1,100,30.12,10.0,SSE,8.1,-,0.00,Rain,Light Rain,160,2013-02-11 09:55:00
5:16 AM,57.2,57.2,100,30.12,10.0,SSE,10.4,-,N/A,Rain,Light Rain,160,2013-02-11 10:16:00
5:55 AM,57.2,57.2,100,30.12,10.0,South,8.1,-,0.03,Rain,Light Rain,170,2013-02-11 10:55:00
5:59 AM,57.2,57.2,100,30.12,10.0,South,8.1,-,N/A,Rain,Light Rain,180,2013-02-11 10:59:00
6:32 AM,57.2,57.2,100,30.12,10.0,South,8.1,-,N/A,Rain,Light Rain,190,2013-02-11 11:32:00
6:55 AM,58.6,58.5,99,30.12,3.0,South,10.4,-,0.03,Rain,Light Rain,180,2013-02-11 11:55:00
7:55 AM,59.5,59.2,99,30.12,5.0,South,11.5,20.7,0.02,Rain,Light Rain,190,2013-02-11 12:55:00
8:13 AM,59.0,59.0,100,30.12,5.0,South,10.4,-,N/A,Rain,Light Rain,190,2013-02-11 13:13:00
8:37 AM,60.8,59.0,94,30.11,3.0,South,10.4,-,N/A,Rain,Light Rain,180,2013-02-11 13:37:00
8:55 AM,60.3,59.9,99,30.12,3.0,South,10.4,-,0.04,Rain,Rain,190,2013-02-11 13:55:00
9:55 AM,61.2,60.8,99,30.12,4.0,South,8.1,-,0.03,Rain,Light Rain,190,2013-02-11 14:55:00
10:42 AM,60.8,60.8,100,30.11,5.0,South,11.5,18.4,N/A,Rain,Light Rain,190,2013-02-11 15:42:00
10:55 AM,61.5,61.2,99,30.08,6.0,SSE,12.7,-,0.02,Rain,Light Rain,160,2013-02-11 15:55:00
11:08 AM,60.8,60.8,100,30.09,7.0,South,9.2,-,N/A,,Overcast,180,2013-02-11 16:08:00
11:46 AM,62.6,62.6,100,30.09,10.0,SSW,9.2,-,N/A,,Overcast,200,2013-02-11 16:46:00
11:55 AM,62.6,61.5,96,30.10,10.0,SW,10.4,-,0.00,,Overcast,230,2013-02-11 16:55:00
12:00 PM,62.6,60.8,94,30.10,10.0,SW,9.2,-,N/A,,Overcast,230,2013-02-11 17:00:00
12:20 PM,62.6,60.8,94,30.09,10.0,SW,9.2,-,N/A,,Overcast,230,2013-02-11 17:20:00
12:55 PM,64.9,62.1,90,30.08,10.0,SW,10.4,-,N/A,,Overcast,230,2013-02-11 17:55:00
1:11 PM,66.2,62.6,88,30.08,10.0,SW,12.7,-,N/A,,Overcast,230,2013-02-11 18:11:00
1:55 PM,67.5,61.3,81,30.06,10.0,WSW,10.4,-,N/A,,Overcast,240,2013-02-11 18:55:00
2:34 PM,69.8,60.8,73,30.04,10.0,WSW,10.4,-,N/A,,Mostly Cloudy,240,2013-02-11 19:34:00
2:55 PM,68.5,60.3,75,30.04,10.0,SW,13.8,19.6,N/A,,Overcast,220,2013-02-11 19:55:00
3:24 PM,68.0,60.8,78,30.04,10.0,WSW,10.4,-,N/A,Rain,Light Rain,250,2013-02-11 20:24:00
3:35 PM,68.0,60.8,78,30.04,10.0,SW,9.2,-,N/A,,Overcast,230,2013-02-11 20:35:00
3:55 PM,67.8,60.1,76,30.05,10.0,SW,10.4,-,0.00,,Overcast,230,2013-02-11 20:55:00
4:14 PM,68.0,60.8,78,30.05,10.0,SW,6.9,-,N/A,Rain,Light Rain,220,2013-02-11 21:14:00
4:55 PM,65.1,62.1,90,30.05,10.0,SW,8.1,-,0.01,Rain,Light Rain,230,2013-02-11 21:55:00
5:55 PM,63.7,63.0,97,30.06,4.0,WSW,6.9,-,0.03,Rain,Light Rain,240,2013-02-11 22:55:00
6:55 PM,62.4,62.2,99,30.06,4.0,SSW,6.9,-,0.03,Rain,Light Rain,210,2013-02-11 23:55:00
7:55 PM,61.3,60.1,96,30.08,10.0,SW,8.1,-,0.02,Rain,Light Rain,230,2013-02-12 00:55:00
8:55 PM,59.2,57.4,94,30.08,10.0,West,8.1,-,0.03,Rain,Light Rain,270,2013-02-12 01:55:00
9:14 PM,59.0,57.2,94,30.09,10.0,West,8.1,-,N/A,Rain,Light Rain,270,2013-02-12 02:14:00
9:47 PM,57.2,55.4,94,30.06,10.0,WSW,9.2,-,N/A,Rain,Light Rain,250,2013-02-12 02:47:00
9:50 PM,57.2,55.4,94,30.06,10.0,WSW,9.2,-,N/A,,Overcast,250,2013-02-12 02:50:00
9:55 PM,57.9,55.9,93,30.06,10.0,WSW,9.2,-,0.04,,Overcast,240,2013-02-12 02:55:00
10:50 PM,57.2,55.4,94,30.05,10.0,SSW,8.1,-,N/A,Rain,Light Rain,210,2013-02-12 03:50:00
10:55 PM,57.2,55.4,94,30.05,10.0,SSW,8.1,-,0.00,Rain,Light Rain,210,2013-02-12 03:55:00
11:06 PM,57.2,55.4,94,30.06,10.0,SSW,9.2,-,N/A,Rain,Light Rain,210,2013-02-12 04:06:00
11:55 PM,56.3,55.2,96,30.04,10.0,SW,8.1,-,0.02,Rain,Light Rain,220,2013-02-12 04:55:00